Location: Chemnitz
(49.5500°N, 11.5830°E)
Time: 06:30:37
(UTC+01:00)

ISS - Pass Details

Date: 11 January 2018
Orbit: 402 x 407 km, 51.6° (Epoch: 18 January)

Event Time Altitude Azimuth Distance (km) Brightness Sun altitude
Exits shadow 05:41:18 48° 101° (ESE) 539 -2.9 -22.8°
Drops below altitude 10° 05:43:46 10° 106° (ESE) 1,466 0.1 -22.4°
Sets 05:45:51 0° 107° (ESE) 2,325 1.5 -22.1°
